Date,TemperatureHighF,TemperatureAvgF,TemperatureLowF,DewpointHighF,DewpointAvgF,DewpointLowF,HumidityHigh,HumidityAvg,HumidityLow,PressureMaxIn,PressureMinIn,WindSpeedMaxMPH,WindSpeedAvgMPH,GustSpeedMaxMPH,PrecipitationSumIn
2013-1-1,34,24,14,28,17,9,85,75,66,30.04,29.83,12,5,20,0.03
2013-1-2,24,19,12,20,14,8,86,80,71,30.22,29.97,9,3,19,0.00
2013-1-3,28,20,10,24,16,6,92,82,76,30.22,29.96,12,2,21,0.00
2013-1-4,34,31,27,26,24,20,81,74,64,30.00,29.87,20,9,39,0.03
2013-1-5,35,32,30,28,25,22,78,75,68,30.29,30.00,12,3,26,0.01
2013-1-6,37,34,31,31,29,24,86,79,74,30.08,29.88,10,3,18,0.14
2013-1-7,35,28,23,31,22,18,86,81,71,30.40,30.06,8,2,14,0.02
2013-1-8,39,32,24,27,23,19,82,68,59,30.32,30.17,7,2,15,0.00
2013-1-9,48,36,26,37,28,20,83,73,61,30.29,29.95,16,5,30,0.00
2013-1-10,41,37,33,32,29,27,81,72,62,30.60,30.29,13,3,22,0.00
2013-1-11,44,39,33,40,33,28,86,78,66,30.44,29.90,9,4,17,0.16
2013-1-12,57,48,39,50,43,36,91,84,76,30.01,29.96,3,1,12,0.01
2013-1-13,67,53,46,57,48,42,90,84,70,29.99,29.77,7,3,20,0.00
2013-1-14,33,30,29,24,22,20,73,70,67,30.38,30.29,6,3,14,0.00
2013-1-15,33,28,27,22,21,20,79,73,59,30.37,30.19,4,1,11,0.00
2013-1-16,38,32,28,30,25,22,83,77,60,30.19,29.77,10,2,18,0.00
2013-1-17,36,26,17,29,18,11,84,74,65,30.18,29.83,11,4,26,0.00
2013-1-18,32,20,12,18,12,8,86,71,55,30.41,30.05,9,2,21,0.00
2013-1-19,49,42,32,31,26,18,62,53,43,30.05,29.61,11,4,29,0.00
2013-1-20,48,32,18,35,20,9,82,61,47,30.06,29.44,23,8,45,0.02
2013-1-21,21,19,15,13,10,6,76,67,62,30.06,29.85,6,2,16,0.01
2013-1-22,14,10,7,6,-1,-6,75,59,45,30.16,29.88,12,6,26,0.00
2013-1-23,12,8,7,6,2,-3,81,73,62,30.22,30.14,5,2,14,0.00
2013-1-24,12,10,4,8,4,0,84,77,68,30.49,30.27,7,3,16,0.00
2013-1-25,16,11,8,10,6,3,84,79,68,30.48,30.08,6,1,11,0.00
2013-1-26,22,14,5,15,9,1,84,79,64,30.37,30.08,4,1,10,0.03
2013-1-27,27,21,17,17,15,13,86,76,64,30.55,30.37,4,1,12,0.04
2013-1-28,42,32,21,40,28,15,92,85,73,30.38,29.85,4,2,14,0.24
2013-1-29,54,40,31,52,38,29,94,92,92,30.06,29.77,9,1,15,0.53
2013-1-30,65,58,50,55,51,47,92,78,68,29.77,29.07,8,4,23,0.15
2013-1-31,56,29,22,51,18,12,85,65,52,29.67,29.03,18,9,40,0.21
2013-2-1,22,19,17,15,12,9,86,74,62,30.17,29.68,10,5,20,0.04
2013-2-2,21,18,14,14,10,6,80,72,64,30.18,29.96,9,2,17,0.00
2013-2-3,24,18,10,17,12,6,85,77,59,29.96,29.77,7,1,21,0.00
2013-2-4,22,19,16,13,11,8,79,70,55,29.93,29.83,10,4,23,0.00
2013-2-5,26,21,15,19,14,11,83,75,66,29.96,29.83,5,1,11,0.00
2013-2-6,27,23,15,23,15,9,85,73,57,30.38,29.85,12,4,19,0.00
2013-2-7,31,22,13,22,14,8,82,70,59,30.43,30.10,8,2,16,0.00
2013-2-8,33,29,18,30,24,15,90,82,64,30.09,29.78,7,2,18,0.07
2013-2-9,20,17,14,17,14,11,88,88,87,30.40,30.05,0,0,3,0.01
2013-2-10,32,20,5,27,16,2,87,85,80,30.40,29.99,6,2,16,0.07
2013-2-11,52,38,32,42,31,26,84,76,67,29.98,29.55,16,6,36,0.49
2013-2-12,34,33,31,29,26,24,86,78,67,29.95,29.69,13,6,31,0.01
2013-2-13,37,31,26,25,24,21,84,75,59,29.91,29.72,4,1,9,0.00
2013-2-14,40,32,25,33,27,21,89,80,62,29.92,29.78,6,1,11,0.15
2013-2-15,38,34,26,34,25,16,89,69,55,30.05,29.77,13,5,29,0.15
2013-2-16,28,24,21,19,16,14,78,72,58,30.05,29.91,3,1,12,0.00
2013-2-17,21,15,11,16,10,4,85,80,71,30.15,29.88,10,4,20,0.00
2013-2-18,28,20,11,17,12,6,92,71,56,30.27,29.94,7,2,15,0.03
2013-2-19,44,34,26,36,25,17,85,71,57,29.94,29.54,16,5,32,0.08
2013-2-20,26,22,19,19,14,11,79,72,61,30.03,29.74,13,7,31,0.08
2013-2-21,21,17,12,16,12,6,86,80,75,30.40,30.01,10,5,20,0.00
2013-2-22,34,26,20,27,21,15,86,80,71,30.38,30.02,7,3,20,0.00
2013-2-23,39,34,31,33,29,25,86,81,75,30.03,29.86,4,1,12,0.12
2013-2-24,32,31,29,27,25,23,85,78,73,30.04,29.84,8,3,18,0.02
2013-2-25,36,32,30,28,26,25,84,78,67,30.23,30.04,5,2,16,0.01
2013-2-26,43,34,24,31,27,21,89,77,60,30.24,29.87,9,3,22,0.06
2013-2-27,35,33,32,33,31,29,92,91,89,29.87,29.56,4,1,11,0.68
2013-2-28,37,34,32,33,31,29,92,88,81,29.70,29.53,6,2,16,0.52
2013-3-1,33,29,27,31,25,21,91,85,78,29.91,29.70,7,3,13,0.38
2013-3-2,27,24,22,23,20,17,87,84,79,29.93,29.85,6,3,13,0.00
2013-3-3,24,22,21,20,17,15,87,82,73,29.88,29.83,7,3,13,0.00
2013-3-4,29,25,21,22,19,15,83,76,68,30.03,29.87,9,5,22,0.00
2013-3-5,32,27,22,24,21,18,85,79,71,30.09,29.97,8,2,14,0.04
2013-3-6,41,31,21,32,26,17,87,81,66,30.13,29.96,4,0,11,0.06
2013-3-7,36,34,31,32,29,25,89,82,72,30.27,30.12,4,0,6,0.01
2013-3-8,39,34,30,26,24,23,79,68,55,30.38,30.24,6,2,12,0.01
2013-3-9,47,36,27,35,28,23,87,73,55,30.41,30.24,4,1,10,0.00
2013-3-10,61,49,33,36,30,25,73,51,35,30.24,29.98,9,3,14,0.00
2013-3-11,55,52,49,44,34,30,70,51,47,30.00,29.69,13,5,28,0.00
2013-3-12,55,41,34,47,35,28,89,78,70,29.91,29.68,13,5,25,0.25
2013-3-13,38,32,24,28,24,17,83,70,55,29.92,29.81,16,7,31,0.00
2013-3-14,31,28,21,19,13,9,82,54,39,30.03,29.92,15,9,28,0.00
2013-3-15,38,36,35,30,29,23,80,75,62,29.78,29.70,13,7,29,0.01
2013-3-17,28,27,24,22,17,12,84,65,54,30.29,30.13,7,3,14,0.00
2013-3-18,34,29,22,27,20,13,89,73,52,30.25,29.75,11,6,30,0.02
2013-3-19,35,31,25,33,26,19,91,83,64,29.82,29.67,14,5,38,0.22
2013-3-20,33,27,24,22,19,16,81,72,54,29.82,29.78,13,6,29,0.03
2013-3-21,30,25,20,24,18,13,83,73,52,29.81,29.70,14,5,20,0.01
2013-3-22,31,28,25,26,23,21,88,82,75,29.90,29.72,12,5,24,0.04
2013-3-23,36,32,28,26,24,22,84,72,60,29.99,29.88,12,6,22,0.05
2013-3-24,38,32,25,27,24,21,84,72,58,29.99,29.74,4,1,9,0.01
2013-3-25,40,34,30,30,26,23,81,72,62,29.74,29.60,4,1,8,0.00
2013-3-26,43,37,30,33,28,25,84,73,57,29.92,29.71,8,2,13,0.00
2013-3-27,45,37,32,34,30,26,89,76,61,30.04,29.90,12,5,20,0.04
2013-3-28,43,38,33,35,31,29,90,79,57,30.19,30.03,7,3,14,0.04
2013-3-29,49,41,36,36,32,28,83,71,49,30.19,30.11,7,3,13,0.01
2013-3-30,50,40,31,32,28,24,83,62,41,30.20,30.06,6,2,14,0.00
2013-3-31,56,44,36,42,32,-100,90,67,42,30.06,29.62,7,2,23,0.15
2013-4-1,44,36,27,39,27,16,88,72,46,29.93,29.57,14,6,31,0.11
2013-4-2,31,27,22,25,20,17,86,76,60,30.09,29.93,13,6,25,0.01
2013-4-3,36,30,26,21,18,14,71,60,42,30.36,30.09,13,6,25,0.01
2013-4-4,56,38,25,27,21,17,74,54,28,30.35,29.92,8,2,18,0.00
2013-4-5,42,38,31,30,24,18,68,58,39,30.14,29.87,12,5,20,0.00
2013-4-6,47,36,24,24,20,17,75,54,37,30.33,30.05,5,2,14,0.00
2013-4-7,71,54,43,49,34,22,70,49,40,30.05,29.70,18,6,39,0.00
2013-4-8,57,46,40,43,37,33,86,70,55,30.13,29.76,7,1,13,0.03
2013-4-9,62,50,43,51,44,39,91,78,60,30.11,29.75,13,4,32,0.55
2013-4-10,45,42,39,43,40,37,92,92,91,30.05,29.88,3,0,13,1.07
2013-4-11,39,34,32,37,31,27,92,87,73,30.15,29.96,4,1,13,0.33
2013-4-12,50,40,33,47,36,31,93,87,74,29.98,29.55,16,5,30,0.77
2013-4-13,46,42,39,37,34,31,81,74,61,29.93,29.77,11,6,26,0.01
2013-4-14,44,39,35,33,30,26,84,69,58,30.20,29.93,6,2,15,0.00
2013-4-15,74,53,34,52,40,26,74,62,44,30.19,30.00,8,3,20,0.00
2013-4-16,65,57,45,58,49,34,91,76,66,30.24,29.96,8,4,22,0.12
2013-4-17,54,46,37,38,34,31,79,64,47,30.36,30.24,5,1,10,0.01
2013-4-18,77,60,42,59,49,33,82,68,51,30.26,29.72,12,4,24,0.07
2013-4-19,72,59,41,61,50,31,84,72,60,29.77,29.38,17,7,33,0.12
2013-4-20,42,38,33,31,27,21,75,63,53,30.40,29.74,14,8,31,0.04
2013-4-21,43,35,29,27,22,16,75,60,44,30.67,30.40,4,1,12,0.00
2013-4-22,58,45,31,32,27,21,70,51,35,30.61,30.35,10,3,22,0.00
2013-4-23,60,50,38,41,36,30,74,57,47,30.36,29.97,9,4,22,0.00
2013-4-24,69,54,39,55,44,34,87,69,53,29.97,29.60,14,4,38,0.17
2013-4-25,56,44,35,38,33,30,87,67,37,30.30,29.97,11,3,26,0.12
2013-4-26,51,44,37,38,34,29,89,69,45,30.47,30.30,7,2,12,0.15
2013-4-27,69,52,37,43,37,30,79,57,35,30.45,30.23,5,1,11,0.01
2013-4-28,73,60,46,48,41,-100,85,55,32,30.23,30.03,10,4,24,0.09
2013-4-29,63,56,50,53,49,45,86,77,65,30.07,30.00,9,4,19,0.17
2013-4-30,72,62,55,56,53,51,88,73,56,30.23,30.06,8,3,20,0.02
2013-5-1,77,66,57,52,46,37,77,52,30,30.35,30.23,8,3,17,0.00
2013-5-2,78,65,52,49,42,36,61,44,29,30.42,30.27,5,1,13,0.00
2013-5-3,76,66,51,52,46,40,74,50,38,30.31,30.22,6,1,15,0.00
2013-5-4,73,63,50,49,44,40,69,53,37,30.29,30.16,5,1,17,0.00
2013-5-5,76,63,47,50,45,41,81,54,33,30.22,30.09,5,1,14,0.00
2013-5-6,77,63,49,49,42,37,69,50,28,30.17,30.02,4,1,10,0.00
2013-5-7,77,66,55,59,53,45,80,64,49,30.13,30.01,3,0,9,0.00
2013-5-8,69,62,56,60,56,50,91,78,67,30.06,29.92,6,1,14,0.19
2013-5-9,69,61,54,61,57,52,93,86,71,29.96,29.87,5,1,12,0.20
2013-5-10,75,61,53,63,54,-100,91,83,67,29.96,29.74,6,1,14,0.72
2013-5-11,59,54,47,57,50,42,92,84,73,29.78,29.66,10,4,19,0.77
2013-5-12,50,44,37,45,35,-100,90,73,50,29.90,29.69,17,6,35,0.02
2013-5-13,49,42,36,35,32,29,78,69,52,30.12,29.91,10,5,24,0.02
2013-5-14,58,46,34,39,34,30,86,65,39,30.16,29.98,5,1,13,0.00
2013-5-15,81,59,45,63,46,34,87,65,47,29.98,29.52,13,4,30,0.14
2013-5-16,75,59,53,50,26,-100,68,51,32,30.00,29.72,14,4,25,0.09
2013-5-17,65,54,42,47,36,-100,86,63,39,30.22,30.00,3,0,7,0.00
2013-5-18,71,57,43,51,45,38,84,66,47,30.27,30.15,4,1,12,0.00
2013-5-19,79,67,57,65,58,50,83,73,62,30.16,29.99,6,2,16,0.00
2013-5-20,83,72,61,70,64,56,85,75,59,30.05,29.87,5,1,10,0.00
2013-5-21,84,70,62,72,64,58,92,81,66,29.92,29.75,5,0,16,0.32
2013-5-22,85,73,62,73,66,59,93,80,55,29.80,29.65,6,1,14,0.17
2013-5-23,75,68,46,66,60,43,90,77,62,29.87,29.71,10,3,20,0.47
2013-5-24,50,42,38,43,38,36,92,85,65,30.18,29.87,7,3,16,0.18
2013-5-25,57,49,42,40,37,35,79,65,48,30.21,30.12,9,3,18,0.01
2013-5-26,61,53,44,40,38,35,76,57,41,30.20,30.11,9,3,15,0.00
2013-5-27,69,56,44,45,40,37,76,55,35,30.27,30.14,5,1,9,0.00
2013-5-28,63,57,53,58,50,39,92,77,57,30.16,29.94,4,1,13,0.59
2013-5-29,81,71,59,69,63,57,94,79,57,30.02,29.90,12,3,24,1.37
2013-5-30,87,78,68,70,65,61,83,67,45,30.12,30.02,7,2,16,0.00
2013-5-31,90,79,67,71,66,61,82,66,42,30.08,29.93,7,2,15,0.00
2013-6-1,88,76,67,71,67,61,91,74,55,29.98,29.77,10,2,19,0.45
2013-6-2,76,70,59,67,62,-100,93,80,59,29.87,29.70,12,4,27,0.79
2013-6-3,62,56,50,52,46,42,82,70,50,30.01,29.87,8,2,14,0.02
2013-6-4,65,57,47,46,43,41,85,63,43,30.16,30.01,8,2,13,0.00
2013-6-5,69,58,51,54,46,39,79,64,47,30.23,30.09,3,1,7,0.00
2013-6-6,57,55,53,55,51,46,93,86,70,30.10,29.85,4,1,11,1.53
2013-6-7,59,57,55,57,55,53,94,93,93,29.85,29.79,2,0,5,0.20
2013-6-8,63,58,55,60,55,53,94,92,81,30.08,29.80,3,1,10,0.03
2013-6-9,73,64,55,61,56,51,86,75,60,30.19,30.07,4,1,11,0.01
2013-6-10,69,64,60,63,59,54,93,85,75,30.14,29.73,6,2,14,0.02
2013-6-11,66,64,59,63,60,53,94,89,79,29.83,29.65,9,3,18,0.30
2013-6-12,74,64,55,59,56,52,90,74,56,29.94,29.80,3,0,5,0.01
2013-6-13,65,60,55,58,56,53,93,88,77,29.80,29.52,4,1,16,0.03
2013-6-14,72,63,53,61,56,51,94,81,62,29.96,29.78,6,2,12,0.01
2013-6-15,73,64,54,57,54,50,89,69,46,30.06,29.95,6,2,14,0.00
2013-6-16,74,67,62,67,60,53,92,77,66,29.96,29.70,9,2,20,0.34
2013-6-17,77,68,63,66,61,58,90,80,60,29.94,29.83,8,2,18,0.10
2013-6-18,69,61,55,58,53,48,90,76,54,30.03,29.90,2,0,9,0.25
2013-6-19,65,58,51,52,47,42,87,68,44,30.20,30.03,4,0,7,0.00
2013-6-20,75,59,45,58,48,42,90,70,43,30.27,30.20,2,0,9,0.00
2013-6-22,85,81,77,72,70,66,84,69,57,30.13,30.01,7,1,12,0.00
2013-6-23,88,80,70,76,70,66,89,72,59,30.07,29.99,6,2,15,0.02
2013-6-24,87,79,74,73,68,65,78,68,54,30.04,29.94,12,4,20,0.02
2013-6-25,82,77,68,72,67,64,87,73,64,29.95,29.80,8,3,22,0.12
2013-6-26,83,74,68,71,67,64,88,81,64,29.83,29.78,8,2,16,0.15
2013-6-27,80,72,64,72,67,61,91,84,75,29.82,29.64,5,0,20,0.63
2013-6-28,67,64,61,65,62,59,94,93,91,29.63,29.51,2,0,6,0.83
2013-6-29,72,66,61,67,62,59,96,88,74,29.70,29.51,2,0,7,0.54
2013-6-30,76,69,62,68,63,59,92,83,72,29.94,29.69,2,0,6,0.00
2013-7-1,67,64,60,63,62,58,93,90,84,30.05,29.93,2,0,13,0.35
2013-7-2,77,66,60,71,63,58,96,90,80,30.11,30.02,1,0,6,0.09
2013-7-3,87,73,65,77,68,63,94,86,64,30.16,30.09,5,0,16,0.88
2013-7-4,84,75,70,73,70,68,94,86,67,30.18,30.11,8,1,11,0.17
2013-7-5,85,76,70,76,71,68,93,86,67,30.15,30.06,5,0,14,0.28
2013-7-6,86,76,69,72,68,66,90,78,56,30.16,30.03,5,1,9,0.01
2013-7-7,83,77,70,73,70,66,93,79,65,30.06,29.94,7,2,15,0.07
2013-7-8,82,73,70,74,68,65,92,85,72,30.06,29.98,5,1,12,0.06
2013-7-9,83,74,69,74,70,66,93,86,69,30.05,29.92,5,0,13,0.25
2013-7-10,85,74,70,75,67,-100,93,83,70,29.91,29.76,10,3,17,0.25
2013-7-11,75,70,65,65,62,59,87,77,67,30.03,29.94,5,1,10,0.00
2013-7-12,76,67,61,67,62,58,92,83,68,30.19,30.02,2,0,5,0.00
2013-7-13,81,72,62,71,66,59,93,83,72,30.25,30.17,3,0,9,0.00
2013-7-14,89,78,67,76,70,65,93,79,60,30.31,30.24,4,0,9,0.00
2013-7-15,86,79,74,75,71,65,89,77,58,30.30,30.23,3,0,7,0.00
2013-7-16,89,79,70,74,69,65,87,73,61,30.29,30.21,4,0,6,0.00
2013-7-17,92,83,74,80,73,68,82,74,56,30.23,30.07,7,2,19,0.00
2013-7-18,87,81,74,78,74,70,91,82,70,30.11,29.95,6,1,16,0.94
2013-7-19,92,82,71,77,72,66,88,72,54,29.96,29.72,13,6,25,0.09
2013-7-20,77,72,68,69,66,63,93,84,64,29.90,29.72,7,2,16,0.35
2013-7-21,75,69,64,66,62,58,90,79,64,30.03,29.89,2,0,6,0.01
2013-7-22,80,69,60,69,62,57,91,81,62,30.01,29.79,1,0,9,0.03
2013-7-23,83,73,67,70,67,60,93,82,56,29.79,29.61,9,2,20,0.03
2013-7-24,68,62,55,60,54,50,86,75,63,30.05,29.70,7,3,14,0.00
2013-7-25,72,61,50,60,52,47,91,75,53,30.14,30.06,2,0,7,0.00
2013-7-26,74,64,53,63,56,50,92,75,61,30.13,30.02,4,0,6,0.00
2013-7-27,81,69,58,69,62,54,92,80,62,30.03,29.84,5,1,12,0.02
2013-7-28,72,67,62,66,63,58,94,87,76,29.99,29.83,4,0,12,0.02
2013-7-29,71,64,57,60,56,54,90,78,57,30.13,29.98,7,2,16,0.01
2013-7-30,73,66,58,63,58,54,89,79,67,30.21,30.14,6,1,10,0.00
2013-7-31,80,70,57,65,60,54,90,73,53,30.17,29.94,5,0,11,0.00
2013-8-1,75,69,65,68,63,60,92,82,68,29.94,29.78,8,1,17,0.06
2013-8-2,75,66,61,65,61,58,90,84,66,29.91,29.84,5,1,15,0.26
2013-8-3,74,67,61,61,59,54,93,75,52,29.92,29.83,8,2,16,0.31
2013-8-4,69,64,59,60,56,52,87,74,59,30.05,29.92,11,3,16,0.01
2013-8-5,72,63,54,58,55,51,89,75,56,30.12,30.03,4,1,10,0.00
2013-8-6,79,66,55,62,57,52,90,74,49,30.07,30.00,4,0,9,0.00
2013-8-7,81,72,63,70,64,58,86,77,65,30.01,29.89,6,1,16,0.00
2013-8-8,84,73,67,74,68,63,93,84,67,29.97,29.91,9,0,14,0.22
2013-8-9,75,70,67,70,66,60,95,88,67,29.93,29.86,3,1,11,0.40
2013-8-10,70,66,59,61,57,53,90,75,57,30.10,29.92,6,2,12,0.03
2013-8-11,74,64,54,62,56,51,90,78,58,30.14,30.05,5,0,9,0.00
2013-8-12,77,68,62,66,60,56,86,76,58,30.06,29.87,5,1,10,0.00
2013-8-13,72,65,59,67,58,-100,93,79,65,29.87,29.75,10,3,20,0.24
2013-8-14,66,58,54,54,47,-100,90,73,57,30.08,29.84,10,4,16,0.01
2013-8-15,72,56,53,58,36,-100,85,65,52,30.14,30.07,10,3,17,0.00
2013-8-16,75,64,56,62,52,-100,86,71,54,30.21,30.12,4,1,9,0.00
2013-8-17,80,67,57,64,58,53,89,75,53,30.30,30.21,3,0,6,0.00
2013-8-18,80,68,58,65,58,-100,90,75,53,30.26,30.12,4,0,7,0.00
2013-8-19,79,66,62,68,48,-100,87,74,54,30.12,30.03,5,1,10,0.00
2013-8-20,83,72,64,65,60,-100,81,69,51,30.14,30.06,7,2,15,0.00
2013-8-21,85,74,67,69,64,60,80,71,55,30.17,30.02,6,1,12,0.00
2013-8-22,84,75,70,71,66,60,88,76,65,30.04,29.89,8,2,16,0.43
2013-8-23,73,66,58,62,58,54,90,77,61,30.22,29.98,2,0,7,0.43
2013-8-24,75,63,54,59,55,51,91,76,52,30.37,30.22,3,0,6,0.00
2013-8-25,83,68,53,62,55,-100,90,68,46,30.35,30.14,6,1,16,0.00
2013-8-26,77,70,66,70,65,59,93,84,63,30.18,29.93,9,3,14,0.88
2013-8-27,81,72,68,73,68,66,94,91,77,29.95,29.89,3,0,8,0.66
2013-8-28,84,77,70,75,71,67,91,82,75,29.96,29.86,1,0,5,0.03
2013-8-29,81,72,66,74,68,63,94,88,75,30.05,29.95,0,0,0,0.01
2013-8-30,85,74,64,73,67,61,93,80,60,30.03,29.78,0,0,0,0.00
2013-8-31,80,74,70,72,69,67,93,86,74,29.86,29.73,0,0,0,0.05
2013-9-1,81,72,67,72,66,-100,94,85,72,29.86,29.76,0,0,0,0.14
2013-9-2,82,73,65,73,68,59,94,86,73,29.80,29.67,0,0,0,0.39
2013-9-3,66,64,61,59,58,56,85,81,75,29.93,29.78,0,0,0,0.00
2013-9-4,77,67,56,62,57,52,88,73,47,29.99,29.93,0,0,0,0.02
2013-9-5,66,60,51,61,50,43,88,72,53,30.22,29.96,0,0,0,0.02
2013-9-6,69,57,47,53,47,42,86,71,49,30.29,30.11,0,0,0,0.00
2013-9-7,66,60,54,60,54,48,88,80,67,30.10,29.87,0,0,0,0.06
2013-9-8,64,59,49,62,50,-100,93,76,55,30.12,29.85,0,0,0,0.12
2013-9-9,78,61,45,63,53,42,90,75,53,30.17,29.98,0,0,0,0.04
2013-9-10,91,79,67,78,71,61,90,78,65,30.01,29.92,9,3,20,0.10
2013-9-11,92,83,75,77,73,67,84,72,56,30.04,29.91,8,4,16,0.10
2013-9-12,76,70,61,68,65,59,92,86,75,29.93,29.72,6,2,13,0.09
2013-9-13,61,54,49,58,52,47,93,92,89,30.01,29.74,5,1,6,0.72
2013-9-14,60,52,49,50,46,42,93,80,61,30.13,30.00,5,1,11,0.13
2013-9-15,67,56,49,55,46,-100,87,72,63,30.17,30.06,8,2,13,0.01
2013-9-16,54,51,46,52,48,42,92,89,82,30.38,30.08,3,0,9,0.14
2013-9-17,64,50,39,47,42,37,92,76,49,30.50,30.31,2,0,6,0.01
2013-9-18,56,46,43,47,42,40,89,87,77,30.31,30.12,1,0,4,0.00
2013-9-19,79,65,54,63,54,47,86,69,50,30.14,30.02,4,1,11,0.00
2013-9-20,83,68,56,67,60,52,92,77,56,30.02,29.80,4,1,12,0.00
2013-9-21,72,63,54,62,59,52,93,86,70,29.80,29.65,8,1,13,0.86
2013-9-22,54,51,50,52,44,-100,92,79,69,30.02,29.72,10,3,14,0.02
2013-9-23,56,50,47,46,43,41,87,77,67,30.15,30.01,5,1,11,0.00
2013-9-24,62,51,42,49,44,39,90,76,54,30.15,30.01,5,1,8,0.00
2013-9-25,67,54,45,54,46,41,88,76,56,30.02,29.97,3,1,9,0.00
2013-9-27,65,58,52,56,52,49,89,82,72,30.27,30.23,1,0,4,0.00
2013-9-28,73,59,46,60,53,44,94,80,61,30.31,30.19,3,0,11,0.00
2013-9-29,76,60,48,58,50,-100,91,73,51,30.19,30.00,5,1,12,0.00
2013-9-30,75,63,53,64,56,49,87,79,67,30.03,29.94,2,0,5,0.00
2013-10-1,67,65,63,60,58,57,85,77,71,29.99,29.92,3,1,9,0.00
2013-10-2,77,68,61,64,60,54,85,75,51,30.08,29.91,8,2,14,0.00
2013-10-3,73,62,52,58,53,48,89,73,44,30.15,30.03,3,0,10,0.11
2013-10-4,65,61,58,63,59,54,94,92,88,30.07,30.00,0,0,4,0.46
2013-10-5,62,60,58,59,57,55,93,90,86,30.11,30.05,1,0,4,0.02
2013-10-6,80,69,59,72,64,56,94,87,74,30.05,29.77,6,1,16,0.26
2013-10-7,73,62,51,66,56,46,91,80,71,30.04,29.65,11,4,18,0.48
2013-10-8,63,53,46,50,46,42,90,78,55,30.36,30.04,5,1,11,0.00
2013-10-9,65,51,40,52,45,38,93,79,57,30.42,30.29,2,0,6,0.00
2013-10-10,65,53,42,49,45,38,89,76,53,30.30,30.16,2,0,5,0.00
2013-10-11,69,53,44,57,48,41,92,83,56,30.17,30.12,2,0,5,0.00
2013-10-12,73,58,42,54,46,40,95,70,34,30.21,30.13,4,0,10,0.00
2013-10-13,72,61,54,61,54,-100,91,80,66,30.29,30.20,7,1,12,0.10
2013-10-14,61,56,49,58,53,46,93,88,76,30.34,30.26,5,1,10,0.18
2013-10-15,67,56,43,57,51,40,93,84,70,30.30,29.97,3,0,13,0.01
2013-10-16,66,61,58,59,54,50,90,79,69,29.98,29.78,6,1,16,0.18
2013-10-17,63,56,51,53,50,47,92,79,61,29.89,29.67,6,1,11,0.21
2013-10-18,59,53,49,51,45,41,92,75,52,29.91,29.71,11,4,28,0.08
2013-10-19,62,54,44,48,44,40,87,69,54,29.91,29.64,8,3,19,0.01
2013-10-20,53,46,41,44,39,-100,87,78,65,30.00,29.74,10,3,21,0.01
2013-10-21,67,55,44,49,42,40,87,63,41,29.99,29.80,7,2,17,0.00
2013-10-22,54,46,41,49,38,31,91,72,54,29.85,29.74,11,4,26,0.00
2013-10-23,45,40,35,38,35,30,89,81,69,29.83,29.70,6,2,13,0.01
2013-10-24,48,39,34,36,33,30,89,77,55,30.01,29.78,11,5,24,0.01
2013-10-25,47,42,36,39,36,34,91,80,67,30.18,30.01,8,3,14,0.00
2013-10-26,46,43,39,36,33,29,86,68,56,30.13,29.79,12,4,24,0.00
2013-10-27,47,42,38,37,34,-100,87,77,61,29.99,29.81,8,4,20,0.00
2013-10-28,48,41,31,39,29,-100,77,67,54,30.39,30.12,9,2,14,0.00
2013-10-29,46,36,27,32,28,22,84,72,54,30.47,30.31,2,0,7,0.00
2013-10-30,57,44,37,43,38,30,90,81,60,30.31,30.12,2,0,6,0.00
2013-10-31,66,52,42,59,48,38,93,86,76,30.12,29.43,5,2,13,0.00
2013-11-1,65,57,49,59,49,43,89,76,61,29.68,29.20,19,8,40,0.00
2013-11-2,50,45,36,45,42,34,92,89,83,29.99,29.61,4,1,10,0.00
2013-11-3,37,33,29,34,25,-100,91,73,61,30.52,29.99,6,1,14,0.00
2013-11-4,42,34,23,28,23,20,88,66,44,30.66,30.46,4,1,11,0.00
2013-11-5,57,45,34,39,30,22,66,57,49,30.48,30.34,4,1,10,0.00
2013-11-6,64,55,45,52,44,35,81,68,57,30.35,29.81,8,2,20,0.00
2013-11-7,59,44,38,54,38,30,90,79,61,29.98,29.79,9,4,20,0.00
2013-11-8,41,38,35,34,30,27,84,74,57,30.22,29.94,11,4,22,0.00
2013-11-9,50,41,35,41,30,-100,83,67,56,30.21,29.77,10,2,22,0.02
2013-11-10,50,43,40,42,36,31,87,75,67,30.13,29.77,14,6,32,0.02
2013-11-11,46,38,29,36,31,26,90,79,59,30.15,29.91,9,4,21,0.01
2013-11-12,31,27,25,26,22,19,90,79,67,30.37,30.09,10,6,20,0.00
2013-11-13,37,29,20,27,20,14,79,69,56,30.42,30.08,12,5,25,0.00
2013-11-14,51,42,34,30,23,18,64,47,31,30.11,30.01,11,6,23,0.00
2013-11-15,52,47,42,29,25,22,47,42,36,30.12,30.05,6,2,16,0.00
2013-11-16,59,49,41,41,33,-100,72,55,43,30.25,30.06,3,1,11,0.00
2013-11-17,61,55,51,54,49,42,90,81,72,30.05,29.38,12,5,23,0.01
2013-11-18,55,47,36,49,37,28,86,68,60,29.87,29.37,16,9,42,0.05
2013-11-19,37,34,29,29,26,22,80,72,63,30.44,29.88,11,5,25,0.01
2013-11-20,38,30,22,23,21,18,84,70,50,30.60,30.44,4,1,9,0.01
2013-11-21,45,38,30,35,26,16,83,62,52,30.47,30.27,4,1,11,0.00
2013-11-22,48,42,33,46,39,28,93,90,80,30.26,29.97,15,2,27,0.07
2013-11-23,35,27,18,27,20,-100,89,76,56,30.17,29.98,14,8,31,0.01
2013-11-24,22,19,16,16,13,10,87,79,62,30.39,30.14,15,6,23,0.01
2013-11-25,34,27,17,22,15,11,82,62,42,30.38,30.10,9,2,27,0.00
2013-11-26,36,33,32,30,27,23,91,80,65,30.15,29.82,6,1,15,0.01
2013-11-27,33,30,22,31,27,17,92,88,77,29.86,29.59,12,5,24,0.01
2013-12-5,62,51,42,55,45,34,86,80,65,29.99,29.75,8,4,17,0.01
2013-12-6,40,33,31,34,28,23,90,79,70,30.23,30.00,6,2,13,0.16
2013-12-7,31,28,25,25,18,-100,83,69,57,30.54,30.23,10,5,18,0.01
2013-12-8,28,24,19,22,15,12,87,68,57,30.57,30.23,9,2,15,0.00
2013-12-9,41,34,25,36,29,21,89,82,71,30.21,29.83,14,4,24,0.15
2013-12-10,34,26,19,25,17,10,88,71,61,30.03,29.90,10,5,25,0.01
2013-12-11,24,22,20,19,13,10,83,70,61,30.19,30.04,10,5,21,0.00
2013-12-14,24,12,7,21,7,-100,89,82,73,30.45,29.77,3,1,14,0.00
2013-12-15,24,21,16,21,17,11,90,86,68,29.82,29.59,11,3,27,0.00
2013-12-16,21,15,5,14,10,2,85,80,69,30.17,29.82,10,3,25,0.00
2013-12-17,27,18,5,24,14,2,89,86,81,30.14,29.89,6,1,11,0.00
2013-12-18,31,28,24,24,22,20,88,77,68,30.06,29.91,12,3,17,0.06
2013-12-19,42,36,26,33,27,19,83,71,62,30.04,29.88,11,2,24,0.32
2013-12-20,45,40,35,42,37,31,92,87,77,30.01,29.78,3,1,11,0.08
2013-12-21,55,40,31,52,36,-100,93,90,85,29.89,29.72,6,1,18,0.80
2013-12-22,44,16,31,42,-40,-100,93,41,85,29.95,29.57,12,2,23,0.35
2013-12-23,41,35,27,37,31,23,88,85,69,30.24,29.95,12,3,19,0.01
2013-12-24,27,21,13,23,17,9,88,85,79,30.43,30.20,8,2,14,0.01
2013-12-25,18,15,8,11,9,5,86,77,70,30.52,30.33,4,2,10,0.00
2013-12-26,32,30,29,27,24,22,87,78,72,30.18,30.05,9,4,19,0.02
2013-12-27,32,31,30,27,26,25,84,81,77,30.22,30.20,6,3,12,0.01
2013-12-28,44,42,40,35,35,34,78,73,70,30.03,30.00,9,4,18,0.00